Kenosha, WI

11:27 AM CST on February 27, 2017 (GMT -0600)
Kenosha Regional

Weather History for KENW - February, 2012

Change the Weather History Date:

Tuesday, February 7, 2012

  Actual Average Record
Temperature  
Mean Temperature 29 °F -  
Max Temperature 33 °F 28 °F 52 °F (2009)
Min Temperature 25 °F 12 °F -10 °F (1972)
Degree Days  
Heating Degree Days 36    
Moisture  
Dew Point 23 °F    
Average Humidity 78    
Maximum Humidity 93    
Minimum Humidity 66    
Precipitation  
Precipitation 0.00 in - - ()
Sea Level Pressure  
Sea Level Pressure 30.33 in    
Wind  
Wind Speed 9 mph (North)    
Max Wind Speed 20 mph    
Max Gust Speed 26 mph    
Visibility 8 miles    
Events Snow    
Averages and records for this station are not official NWS values.
T = Trace of Precipitation, MM = Missing Value Source: NWS Daily Summary

Daily Weather History Graph

Daily Weather History Graph

Search for Another Location

Airport or City:

Trip Planner

Search our weather history database for the weather conditions in past years. The results will help you decide how hot, cold, wet, or windy it might be!

Date:

Astronomy

Feb. 07, 2012 Rise Set
Actual Time 6:59 AM CST 5:12 PM CST
Civil Twilight 6:30 AM CST 5:42 PM CST
Nautical Twilight 5:56 AM CST 6:15 PM CST
Astronomical Twilight 5:23 AM CST 6:48 PM CST
Moon 5:24 PM CST (2/7) 6:27 AM CST (2/7)
Length of Visible Light 11h 11m
Length of Day
10h 12m
Full, 100% of the Moon is Illuminated
Feb 7
Full
Feb 7
Full
Feb 14
Last Quarter
Feb 21
New
Feb 29
First Quarter

Hourly Weather History & Observations

Time (CST) Temp. Windchill Dew Point Humidity Pressure Visibility Wind Dir Wind Speed Gust Speed Precip Events Conditions
12:53 AM 25.0 °F 19.3 °F 21.9 °F 88% 30.19 in 4.0 mi West 4.6 mph - N/A   Clear
1:38 AM 28.4 °F 22.2 °F 24.8 °F 86% 30.17 in 4.0 mi WNW 5.8 mph - N/A   Overcast
1:53 AM 28.0 °F 22.8 °F 25.0 °F 88% 30.21 in 4.0 mi WNW 4.6 mph - N/A   Overcast
2:53 AM 28.0 °F 21.7 °F 25.0 °F 88% 30.22 in 5.0 mi WNW 5.8 mph - N/A   Overcast
3:43 AM 28.4 °F 23.3 °F 26.6 °F 93% 30.20 in 5.0 mi NW 4.6 mph - N/A   Overcast
3:53 AM 28.9 °F - 26.1 °F 89% 30.23 in 5.0 mi Calm Calm - N/A   Overcast
4:53 AM 30.0 °F 24.1 °F 27.0 °F 88% 30.24 in 4.0 mi North 5.8 mph - N/A   Overcast
5:32 AM 33.8 °F 24.8 °F 30.2 °F 87% 30.22 in 8.0 mi NE 12.7 mph 18.4 mph N/A   Overcast
5:53 AM 34.0 °F 23.8 °F 30.9 °F 89% 30.26 in 5.0 mi NE 16.1 mph 21.9 mph 0.00 in Snow Light Snow
6:01 AM 33.8 °F 24.3 °F 30.2 °F 87% 30.24 in 1.8 mi NE 13.8 mph 21.9 mph 0.00 in Snow Light Snow
6:26 AM 33.8 °F 22.8 °F 30.2 °F 87% 30.25 in 3.0 mi NNE 18.4 mph 24.2 mph 0.00 in Snow Light Snow
6:44 AM 33.8 °F 23.5 °F 28.4 °F 81% 30.26 in 9.0 mi NNE 16.1 mph 23.0 mph 0.00 in   Overcast
6:53 AM 33.1 °F 23.0 °F 28.9 °F 85% 30.29 in 9.0 mi NNE 15.0 mph 21.9 mph 0.00 in   Overcast
7:53 AM 32.0 °F 20.1 °F 28.0 °F 85% 30.32 in 2.0 mi NNE 19.6 mph 25.3 mph 0.00 in Snow Light Snow
8:24 AM 32.0 °F 19.5 °F 26.6 °F 80% 30.30 in 9.0 mi NNE 21.9 mph 27.6 mph 0.00 in   Overcast
8:53 AM 32.0 °F 20.8 °F 27.0 °F 82% 30.34 in 10.0 mi NNE 17.3 mph 25.3 mph 0.00 in   Overcast
9:53 AM 32.0 °F 23.0 °F 26.1 °F 79% 30.38 in 10.0 mi NNE 11.5 mph 21.9 mph N/A   Overcast
10:53 AM 32.0 °F 23.0 °F 25.0 °F 75% 30.39 in 10.0 mi NNE 11.5 mph - N/A   Overcast
11:53 AM 30.9 °F 19.4 °F 25.0 °F 79% 30.39 in 10.0 mi NNE 17.3 mph 26.5 mph 0.00 in   Overcast
12:53 PM 30.9 °F 19.4 °F 24.1 °F 76% 30.38 in 10.0 mi NNE 17.3 mph 26.5 mph 0.00 in   Overcast
1:53 PM 30.9 °F 19.8 °F 21.9 °F 69% 30.38 in 10.0 mi NE 16.1 mph 25.3 mph N/A   Overcast
2:53 PM 30.0 °F 19.1 °F 19.9 °F 66% 30.40 in 10.0 mi NE 15.0 mph 23.0 mph N/A   Overcast
3:53 PM 30.0 °F 19.5 °F 19.9 °F 66% 30.41 in 10.0 mi NNE 13.8 mph - N/A   Overcast
4:53 PM 28.9 °F 19.2 °F 19.9 °F 69% 30.42 in 10.0 mi NNE 11.5 mph 19.6 mph N/A   Overcast
5:13 PM 28.4 °F 19.1 °F 19.4 °F 69% 30.38 in 10.0 mi NNE 10.4 mph - N/A   Overcast
5:20 PM 28.4 °F 17.0 °F 19.4 °F 69% 30.39 in 10.0 mi NNE 15.0 mph 18.4 mph N/A   Overcast
5:53 PM 28.9 °F 20.4 °F 19.0 °F 67% 30.42 in 10.0 mi North 9.2 mph 19.6 mph N/A   Overcast
6:53 PM 28.9 °F 20.4 °F 19.0 °F 67% 30.42 in 10.0 mi North 9.2 mph - N/A   Overcast
7:53 PM 27.0 °F 17.3 °F 18.0 °F 69% 30.43 in 10.0 mi North 10.4 mph - N/A   Overcast
8:53 PM 26.1 °F 15.6 °F 17.1 °F 69% 30.42 in 10.0 mi North 11.5 mph - N/A   Overcast
9:53 PM 26.1 °F 16.2 °F 17.1 °F 69% 30.43 in 10.0 mi NNW 10.4 mph - N/A   Overcast
10:53 PM 26.1 °F 16.8 °F 16.0 °F 66% 30.42 in 10.0 mi NNW 9.2 mph - N/A   Overcast
11:53 PM 25.0 °F 15.5 °F 15.1 °F 66% 30.43 in 10.0 mi NNW 9.2 mph - N/A   Overcast